Meteo Giornale » Osservazioni meteo Stati Uniti (USA) » Frederick

ore: 14:03 - Osservazioni Meteo Frederick
Lat. 39° 25' N Lon. 77° 22' W Alt. 92 metri s.l.m.

molto_nuvoloso

28 °C

Molto Nuvoloso

Temp. 24 Ore

21 °C

29 °C

Nord

0 Km/h

Dew point 22 °C

Umidità 69 %

Visibilità  10 Km

Il sole sorge alle ore 06:37

Il sole tramonta alle ore 19:42

Data e Ora Cielo e Fenomeni T °C DP °C Um. % Pres. hPa Vis. km Vento km/h
Oggi h: 14:03 molto_nuvoloso Molto Nuvoloso 28 22 69 1020 10 N 0
Oggi h: 13:47 sereno Sereno 28 22 69 1020 10 N 0
Oggi h: 11:47 sereno Sereno 28 22 69 1021 10 N 0
Oggi h: 10:47 coperto Coperto 25 22 83 1021 10 N/NE 9.3
Oggi h: 09:47 coperto Coperto 24 22 88 1021 10 N/NE 9.3
Oggi h: 07:47 coperto Coperto 22 22 100 1020 10 N 0
Oggi h: 06:47 coperto Coperto 21 21 100 1020 10 N 0
Oggi h: 06:15 molto_nuvoloso Molto Nuvoloso 22 22 100 1020 10 N 5.5
Oggi h: 05:55 coperto Coperto 21 21 100 1020 10 N 0
Oggi h: 05:35 coperto Coperto 21 21 100 1019 10 N 0
Oggi h: 05:15 coperto Coperto 21 21 100 1019 10 N 0
Oggi h: 04:55 coperto Coperto 21 21 100 1019 10 N 0
Oggi h: 04:35 molto_nuvoloso Molto Nuvoloso 21 21 100 1019 10 N 0
Oggi h: 04:15 coperto Coperto 21 21 100 1019 10 N 0
Oggi h: 03:55 molto_nuvoloso Molto Nuvoloso 21 21 100 1019 10 N 0
Oggi h: 03:35 molto_nuvoloso Molto Nuvoloso 21 21 100 1019 10 N 0
Oggi h: 03:15 molto_nuvoloso Molto Nuvoloso 22 22 100 1019 10 N 0
Oggi h: 02:55 coperto Coperto 22 22 100 1019 14 N 5.5
Oggi h: 02:35 molto_nuvoloso Molto Nuvoloso 21 21 100 1019 10 N 5.5
Oggi h: 02:15 molto_nuvoloso Molto Nuvoloso 22 22 100 1019 10 N 5.5
Oggi h: 01:55 coperto Coperto 22 22 100 1019 10 N 0
Oggi h: 01:35 coperto Coperto 22 22 100 1019 10 N 0
Oggi h: 01:15 molto_nuvoloso Molto Nuvoloso 22 22 100 1019 10 N 5.5
Oggi h: 01:00 coperto Coperto 22 22 100 1019 10 N 5.5
Oggi h: 00:35 coperto Coperto 22 22 100 1019 10 S/SE 7.4
Oggi h: 00:15 molto_nuvoloso Molto Nuvoloso 22 22 100 1019 10 N 0
Ieri h: 23:55 coperto Coperto 22 22 100 1020 10 N 0
Ieri h: 23:35 coperto Coperto 22 22 100 1020 10 N 0
Ieri h: 23:15 coperto Coperto 23 22 94 1020 14 N 0
Ieri h: 22:55 coperto Coperto 23 22 94 1020 10 N 0
Ieri h: 22:35 coperto Coperto 23 22 94 1020 10 N 0
Ieri h: 22:15 coperto Coperto 24 22 88 1020 10 N 5.5
Ieri h: 21:55 coperto Coperto 24 22 88 1020 10 SO 9.3
Ieri h: 21:35 coperto Coperto 24 22 88 1020 10 SO 9.3
Ieri h: 21:15 molto_nuvoloso Molto Nuvoloso 25 22 83 1020 10 S/SO 7.4
Ieri h: 20:47 poco_nuvoloso Poco Nuvoloso 25 23 88 1019 10 S/SO 11.1
Ieri h: 19:47 poco_nuvoloso Poco Nuvoloso 26 25 94 1019 10 N 5.5
Ieri h: 18:47 sereno Sereno 28 24 78 1019 10 N 0
Ieri h: 17:47 nuvoloso Nuvoloso 28 24 78 1019 10 N 5.5
Ieri h: 16:47 nuvoloso Nuvoloso 29 24 74 1019 10 N 0
Ieri h: 15:47 nuvoloso_temporali Temporale nelle vicinanze Foschia 28 23 74 1020 11 S 14.8
Ieri h: 14:47 foschia Foschia 28 23 74 1021 11 S 14.8